SCP
0 0 0 0 0 0 0 0 0 0 0 0 0 0 0 0 0 0 0 0 0 0 0 0 0 0 0 0 0 0 0 0 0 0 0 0 0 0 0 0 0 0 0
0 0 0 0 0 0 0 0 0 0 0 0 0 0 0 0 0 0 0 0 0 0 0 0 0 0 0 0 0 0 0 0 0 0 0 0 0 0 0 0 0 0 0
0 0 0 0 0 0 0 0 0 0 0 0 0 0 0 0 0 0 0 0 0 0 0 0 0 0 0 0 0 0 0 0 0 0 0 0 0 0 0 0 0 0 0
0 0 0 0 0 0 0 0 0 0 0 0 0 0 0 0 0 0 0 0 0 0 0 0 0 0 0 0 0 0 0 0 0 0 0 0 0 0 0 0 0 0 0
0 0 0 0 0 0 0 0 0 0 0 0 0 0 0 0 0 0 0 0 0 0 0 0 0 0 0 0 0 0 0 0 0 0 0 0 0 0 0 0 0 0 0
0 0 0 0 0 0 0 0 0 0 0 0 0 0 0 0 0 0 0 0 0 0 0 0 0 0 0 0 0 0 0 0 0 0 0 0 0 0 0 0 0 0 0
0 0 0 0 0 0 0 0 0 0 0 0 0 0 0 0 0 0 0 0 0 0 0 0 0 0 0 0 0 0 0 0 0 0 0 0 0 0 0 0 0 0 0
0 0 0 0 0 0 0 0 0 0 0 0 0 0 0 0 0 0 0 0 0 0 0 0 0 0 0 0 0 0 0 0 0 0 0 0 0 0 0 0 0 0 0
0 0 0 0 0 0 0 0 0 0 0 0 0 0 0 0 0 0 0 0 0 0 0 0 0 0 0 0 0 0 0 0 0 0 0 0 0 0 0 0 0 0 0
0 0 0 0 0 0 0 0 0 0 0 0 0 0 0 0 0 0 0 0 0 0 0 0 0 0 0 0 0 0 0 0 0 0 0 0 0 0 0 0 0 0 0
0 0 0 0 0 0 0 0 0 0 0 0 0 0 0 0 0 0 0 0 0 0 0 0 0 0 0 0 0 0 0 0 0 0 0 0 0 0 0 0 0 0 0
0 0 0 0 0 0 0 0 0 0 0 0 0 0 0 0 0 0 0 0 0 0 0 0 0 0 0 0 0 0 0 0 0 0 0 0 0 0 0 0 0 0 0
0 0 0 0 0 0 0 0 0 0 0 0 0 0 0 0 0 0 0 0 0 0 0 0 0 0 0 0 0 0 0 0 0 0 0 0 0 0 0 0 0 0 0
0 0 0 0 0 0 0 0 0 0 0 0 0 0 0 0 0 0 0 0 0 0 0 0 0 0 0 0 0 0 0 0 0 0 0 0 0 0 0 0 0 0 0
0 0 0 0 0 0 0 0 0 0 0 0 0 0 0 0 0 0 0 0 0 0 0 0 0 0 0 0 0 0 0 0 0 0 0 0 0 0 0 0 0 0 0
0 0 0 0 0 0 0 0 0 0 0 0 0 0 0 0 0 0 0 0 0 0 0 0 0 0 0 0 0 0 0 0 0 0 0 0 0 0 0 0 0 0 0
0 0 0 0 0 0 0 0 0 -0 0 0 0 0 0 0 0 0 0 0 0 0 0 0 0 0 0 0 0 0 0 0 0 0 0 0 0 0 0 0 0 0 0
0 0 0 -0 0 -0 0 0 0 0 0 0 0 0 0 0 0 0 0 0 0 0 0 0 0 0 0 0 0 0 0 0 0 0 0 0 0 0 0 0 0 0 0
0 0 -0 -0 0 0 0 0 0 0 0 0 0 0 0 0 0 0 0 0 0 0 0 0 0 0 0 0 0 0 0 0 0 0 0 0 0 0 0 0 0 0 0
0 0 0 0 0 0 0 0 0 0 0 0 0 0 0 0 0 0 0 0 0 0 0 0 0 0 0 0 0 0 0 0 0 0 0 0 0 0 0 0 0 0 0
0 0 0 0 0 0 0 0 0 0 0 0 0 0 0 0 0 0 0 0 0 0 0 0 0 0 0 0 0 0 0 0 0 0 0 0 0 0 0 0 0 0 0
0 0 0 0 0 0 0 0 0 0 0 0 0 0 0 0 0 0 0 0 0 0 0 0 0 0 0 0 0 0 0 0 0 0 0 0 0 0 0 0 0 0 0
0 0 0 0 0 0 0 0 0 0 0 0 0 0 0 0 0 0 0 0 0 0 0 0 0 0 0 0 0 0 0 0 0 0 0 0 0 0 0 0 0 0 0
0 0 0 0 0 0 0 0 0 0 0 0 0 0 0 0 0 0 0 0 0 0 0 0 0 0 0 0 0 0 0 0 0 0 0 0 0 0 0 0 0 0 0
0 0 0 0 0 0 0 0 0 0 0 0 0 0 0 0 0 0 0 0 0 0 0 0 0 0 0 0 0 0 0 0 0 0 0 0 0 0 0 0 0 0 0
0 0 0 0 0 0 0 0 0 0 0 0 0 0 0 0 0 0 0 0 0 0 0 0 0 0 0 0 0 0 0 0 0 0 0 0 0 0 0 0 0 0 0
Wind_Speed_500mb
26 40 45 52 55 48 66 75 80 78 75 71 70 72 69 62 53 44 38 40 39 37 34 28 29 28 28 22 18 14 14 12 9 9 9 11 17 18 18 15 14 17 19
31 28 36 50 56 59 64 84 86 83 79 77 73 71 69 65 55 46 39 38 40 37 34 34 37 36 31 28 22 19 18 18 14 13 14 14 16 21 23 22 22 26 29
30 26 32 46 51 67 80 86 90 88 82 81 74 70 68 68 58 54 49 46 41 39 42 40 41 40 37 33 25 18 21 18 20 20 22 8 10 13 24 27 29 31 34
20 24 29 39 43 45 60 49 83 84 86 88 81 71 71 73 61 63 54 50 47 44 44 49 47 45 45 39 30 27 27 29 29 30 31 25 31 23 13 28 35 37 41
25 25 23 23 38 33 44 43 63 62 100 92 81 75 70 69 62 57 55 56 53 51 49 49 53 59 40 39 35 35 37 39 38 36 37 36 38 39 39 30 32 37 41
24 23 24 24 22 26 26 20 47 34 73 75 76 83 78 75 67 64 60 64 58 56 54 53 34 28 37 40 40 45 47 42 42 40 42 39 39 43 38 34 42 29 34
22 20 22 21 25 26 22 11 7 47 51 86 80 85 75 72 70 66 60 60 59 56 51 44 35 36 39 40 42 43 43 43 46 36 39 38 44 43 34 34 33 33 34
29 19 25 24 25 23 19 20 5 32 27 35 60 65 74 56 69 60 40 54 41 36 45 48 38 33 30 35 33 31 35 31 31 35 35 36 26 33 34 30 25 23 24
31 23 24 26 24 22 23 25 23 27 20 30 39 50 63 62 56 45 39 38 31 38 44 41 40 22 29 27 27 32 30 29 31 28 20 24 25 26 27 26 24 19 18
35 27 23 26 28 25 19 19 24 19 25 15 26 30 39 39 40 32 25 24 22 26 40 41 27 37 32 33 37 32 26 23 20 15 17 18 20 24 16 14 17 15 18
39 30 30 30 30 29 25 27 18 16 16 16 13 14 19 18 17 19 24 27 26 26 25 27 33 33 34 43 35 29 19 14 11 13 11 10 13 12 15 15 12 14 14
32 29 27 26 29 29 30 30 28 20 20 20 19 25 32 28 27 24 22 18 16 13 9 6 2 6 6 8 8 9 7 6 4 4 8 8 9 7 8 8 8 8 9
22 19 16 20 20 24 27 27 28 26 28 25 27 29 25 24 18 12 10 8 9 7 4 1 4 6 2 5 9 7 5 6 6 7 7 5 4 3 4 5 6 7 8
16 10 10 10 11 12 13 14 14 12 11 8 7 12 14 11 4 5 9 13 14 18 15 13 16 18 17 13 10 8 9 8 7 12 7 4 2 2 2 4 6 8 10
19 11 10 11 10 11 11 11 9 9 11 10 10 6 5 8 7 5 5 3 5 6 6 10 12 12 13 11 10 9 11 11 10 8 4 3 3 0 3 4 6 8 9
17 14 13 10 11 11 11 12 12 11 10 5 7 8 10 12 9 11 14 11 12 11 12 12 12 12 15 14 14 13 11 9 10 8 8 6 4 1 3 5 8 10 13
18 18 15 13 13 12 14 15 17 15 15 13 15 15 15 15 15 16 18 17 16 15 16 16 17 16 15 17 13 12 12 11 11 9 7 4 4 5 8 11 13 15 18
16 16 14 12 13 13 15 15 17 16 18 17 18 16 16 14 14 13 13 13 13 13 12 12 13 13 13 13 12 10 10 9 7 5 3 4 5 7 11 13 16 19 22
15 15 15 15 14 16 16 16 15 15 16 15 16 16 15 13 12 10 10 11 10 12 11 10 12 13 13 11 10 9 7 4 3 2 3 5 8 11 15 18 21 25 27
16 15 15 15 15 15 16 15 13 13 13 14 14 13 12 12 12 11 11 11 10 8 10 8 8 10 11 11 9 7 5 4 0 2 5 8 12 16 20 23 26 29 31
18 17 15 13 14 13 15 13 11 12 12 13 12 11 11 10 10 9 8 8 6 6 7 8 8 8 9 8 7 5 5 4 4 7 9 11 14 19 23 26 28 31 34
17 15 14 12 10 11 12 11 10 11 11 11 9 8 6 6 6 4 3 2 2 4 5 6 7 7 7 8 8 8 9 10 11 13 14 16 19 24 27 30 33 36 38
19 17 13 10 8 5 5 5 7 8 9 8 6 5 3 3 2 3 4 5 5 7 8 10 11 12 12 14 15 14 14 16 17 20 22 24 26 30 32 36 39 41 41
14 14 13 10 6 3 3 5 6 7 4 3 3 4 3 5 7 8 8 10 10 12 14 15 15 18 19 18 19 19 19 22 24 28 29 29 32 36 39 39 40 44 46
11 11 12 13 12 10 8 8 9 10 11 11 9 6 6 10 12 11 11 13 17 19 20 22 24 25 24 25 30 28 28 30 32 34 35 36 40 42 42 42 44 47 49
10 12 13 14 14 14 13 13 14 15 17 19 21 22 23 21 20 19 21 21 22 23 24 25 26 30 34 33 34 35 37 38 40 41 40 40 42 43 43 46 47 48 51
Wind_Direction_500mb
241 221 208 204 216 208 208 201 201 199 198 198 199 200 200 198 199 203 204 201 196 195 191 187 182 188 198 202 202 213 203 199 199 212 217 246 264 258 258 257 257 261 269
231 202 202 195 205 212 217 203 202 198 200 202 205 204 201 200 203 201 202 203 203 201 189 195 199 203 202 198 192 206 214 213 216 226 236 246 261 248 251 258 265 269 276
232 200 170 192 192 191 203 200 202 201 202 205 206 206 206 200 203 204 202 205 209 204 204 209 211 212 210 206 195 208 219 220 218 234 245 240 251 270 265 258 265 275 284
203 196 187 176 195 199 200 198 202 206 205 202 204 207 203 202 207 207 207 209 213 218 218 220 223 221 216 213 212 219 228 235 239 244 252 261 267 271 251 257 268 262 278
182 175 158 172 194 191 203 212 216 213 212 212 206 210 209 211 211 214 214 217 218 219 225 229 232 232 229 219 219 230 236 241 249 255 264 263 263 269 261 266 269 275 275
163 142 156 165 173 197 210 217 230 257 206 217 215 211 210 210 215 219 227 225 222 225 229 231 231 225 224 233 226 234 241 249 254 259 269 276 275 272 264 268 270 275 267
136 132 125 148 156 164 173 184 252 231 171 201 217 205 205 211 213 216 221 228 226 229 230 216 211 214 225 233 239 247 251 250 252 252 268 269 276 270 276 288 282 278 284
114 106 115 118 128 148 161 160 272 273 227 192 212 204 210 205 212 204 193 212 217 228 224 205 206 203 234 241 245 260 256 261 261 270 269 272 273 289 285 283 282 279 280
109 109 108 110 114 119 145 150 184 221 218 260 198 230 230 240 236 204 215 232 233 210 210 204 189 212 239 237 264 266 271 267 264 266 256 283 289 295 291 284 280 265 266
106 106 111 107 104 114 112 115 131 157 155 173 190 161 163 179 186 170 176 178 194 187 196 188 222 242 233 237 261 265 260 234 224 251 278 289 297 289 285 271 273 267 268
113 115 105 104 102 101 104 99 99 111 124 130 125 139 125 147 146 170 180 184 197 203 218 219 218 226 232 243 245 220 207 222 264 270 266 263 262 255 263 267 272 274 271
117 111 107 109 105 105 101 97 98 97 112 130 117 106 107 111 98 81 79 88 95 86 95 104 256 203 179 181 194 231 204 231 259 238 247 243 258 262 267 271 286 300 296
104 109 124 119 119 116 111 107 101 97 91 99 110 104 93 83 85 89 87 113 95 102 191 214 339 324 285 203 225 229 214 208 236 238 229 206 228 256 280 316 329 336 332
115 155 150 136 133 130 134 141 140 134 118 114 78 72 67 62 49 324 306 300 285 274 282 292 262 256 249 240 214 213 237 234 197 181 173 209 248 323 341 351 337 333 330
124 129 121 114 106 119 126 132 138 153 171 191 210 224 289 327 329 272 274 226 187 172 171 184 184 194 203 226 221 218 191 173 163 200 174 162 141 137 302 339 341 343 331
107 100 95 95 92 93 102 111 114 102 89 105 144 162 159 141 138 139 139 139 144 135 137 146 151 166 161 138 140 140 151 161 158 148 139 143 155 121 351 353 353 343 338
91 90 85 87 95 97 97 93 93 98 103 109 103 105 105 111 125 128 132 135 133 135 133 135 132 138 149 139 144 147 144 139 135 129 121 102 48 20 10 357 343 336 333
92 98 101 105 103 98 91 96 103 109 106 105 104 106 109 113 116 121 126 125 133 127 130 133 136 148 151 139 140 139 125 122 116 99 68 31 8 355 347 343 333 329 328
94 105 110 107 103 99 94 91 93 93 95 104 106 111 112 110 115 115 106 105 110 118 123 131 140 139 142 139 137 133 126 116 100 83 20 353 346 341 334 334 329 325 323
94 91 94 94 94 95 95 93 96 102 104 98 94 99 103 101 96 93 94 96 100 112 118 130 142 144 145 144 148 154 163 161 165 343 331 333 336 333 329 327 322 319 317
94 91 88 87 94 96 94 92 93 84 77 77 81 86 89 92 90 89 96 101 117 133 145 153 162 163 163 172 181 194 224 252 278 303 311 314 313 314 318 316 314 313 311
91 91 93 88 85 89 94 95 88 87 88 87 88 87 87 87 86 81 82 123 165 181 177 168 178 197 213 226 239 247 258 271 278 284 292 300 305 309 309 308 307 305 304
83 84 82 86 88 92 114 124 111 103 92 91 82 74 64 47 346 270 243 225 227 227 215 210 221 231 237 240 245 256 267 275 284 287 291 296 301 303 304 305 306 304 302
46 38 39 39 46 83 188 206 204 176 147 101 56 24 331 322 306 285 269 259 244 242 242 245 254 255 256 262 267 264 270 273 275 280 285 292 299 302 303 303 302 301 300
24 10 354 342 342 339 322 302 269 257 251 247 250 271 291 295 292 290 281 272 266 264 259 256 261 267 264 261 259 264 265 269 276 284 293 298 297 297 300 299 299 298 297
347 342 344 336 325 314 310 302 297 289 277 270 262 255 254 252 262 271 272 280 274 277 279 278 279 278 275 265 268 275 275 278 282 286 289 291 292 293 294 294 294 294 295
Wind_Speed_850mb
26 40 45 52 55 48 66 75 80 78 75 71 70 72 69 62 53 44 38 40 39 37 34 28 29 28 28 22 18 14 14 12 9 9 9 11 17 18 18 15 14 17 19
31 28 36 50 56 59 64 84 86 83 79 77 73 71 69 65 55 46 39 38 40 37 34 34 37 36 31 28 22 19 18 18 14 13 14 14 16 21 23 22 22 26 29
30 26 32 46 51 67 80 86 90 88 82 81 74 70 68 68 58 54 49 46 41 39 42 40 41 40 37 33 25 18 21 18 20 20 22 8 10 13 24 27 29 31 34
20 24 29 39 43 45 60 49 83 84 86 88 81 71 71 73 61 63 54 50 47 44 44 49 47 45 45 39 30 27 27 29 29 30 31 25 31 23 13 28 35 37 41
25 25 23 23 38 33 44 43 63 62 100 92 81 75 70 69 62 57 55 56 53 51 49 49 53 59 40 39 35 35 37 39 38 36 37 36 38 39 39 30 32 37 41
24 23 24 24 22 26 26 20 47 34 73 75 76 83 78 75 67 64 60 64 58 56 54 53 34 28 37 40 40 45 47 42 42 40 42 39 39 43 38 34 42 29 34
22 20 22 21 25 26 22 11 7 47 51 86 80 85 75 72 70 66 60 60 59 56 51 44 35 36 39 40 42 43 43 43 46 36 39 38 44 43 34 34 33 33 34
29 19 25 24 25 23 19 20 5 32 27 35 60 65 74 56 69 60 40 54 41 36 45 48 38 33 30 35 33 31 35 31 31 35 35 36 26 33 34 30 25 23 24
31 23 24 26 24 22 23 25 23 27 20 30 39 50 63 62 56 45 39 38 31 38 44 41 40 22 29 27 27 32 30 29 31 28 20 24 25 26 27 26 24 19 18
35 27 23 26 28 25 19 19 24 19 25 15 26 30 39 39 40 32 25 24 22 26 40 41 27 37 32 33 37 32 26 23 20 15 17 18 20 24 16 14 17 15 18
39 30 30 30 30 29 25 27 18 16 16 16 13 14 19 18 17 19 24 27 26 26 25 27 33 33 34 43 35 29 19 14 11 13 11 10 13 12 15 15 12 14 14
32 29 27 26 29 29 30 30 28 20 20 20 19 25 32 28 27 24 22 18 16 13 9 6 2 6 6 8 8 9 7 6 4 4 8 8 9 7 8 8 8 8 9
22 19 16 20 20 24 27 27 28 26 28 25 27 29 25 24 18 12 10 8 9 7 4 1 4 6 2 5 9 7 5 6 6 7 7 5 4 3 4 5 6 7 8
16 10 10 10 11 12 13 14 14 12 11 8 7 12 14 11 4 5 9 13 14 18 15 13 16 18 17 13 10 8 9 8 7 12 7 4 2 2 2 4 6 8 10
19 11 10 11 10 11 11 11 9 9 11 10 10 6 5 8 7 5 5 3 5 6 6 10 12 12 13 11 10 9 11 11 10 8 4 3 3 0 3 4 6 8 9
17 14 13 10 11 11 11 12 12 11 10 5 7 8 10 12 9 11 14 11 12 11 12 12 12 12 15 14 14 13 11 9 10 8 8 6 4 1 3 5 8 10 13
18 18 15 13 13 12 14 15 17 15 15 13 15 15 15 15 15 16 18 17 16 15 16 16 17 16 15 17 13 12 12 11 11 9 7 4 4 5 8 11 13 15 18
16 16 14 12 13 13 15 15 17 16 18 17 18 16 16 14 14 13 13 13 13 13 12 12 13 13 13 13 12 10 10 9 7 5 3 4 5 7 11 13 16 19 22
15 15 15 15 14 16 16 16 15 15 16 15 16 16 15 13 12 10 10 11 10 12 11 10 12 13 13 11 10 9 7 4 3 2 3 5 8 11 15 18 21 25 27
16 15 15 15 15 15 16 15 13 13 13 14 14 13 12 12 12 11 11 11 10 8 10 8 8 10 11 11 9 7 5 4 0 2 5 8 12 16 20 23 26 29 31
18 17 15 13 14 13 15 13 11 12 12 13 12 11 11 10 10 9 8 8 6 6 7 8 8 8 9 8 7 5 5 4 4 7 9 11 14 19 23 26 28 31 34
17 15 14 12 10 11 12 11 10 11 11 11 9 8 6 6 6 4 3 2 2 4 5 6 7 7 7 8 8 8 9 10 11 13 14 16 19 24 27 30 33 36 38
19 17 13 10 8 5 5 5 7 8 9 8 6 5 3 3 2 3 4 5 5 7 8 10 11 12 12 14 15 14 14 16 17 20 22 24 26 30 32 36 39 41 41
14 14 13 10 6 3 3 5 6 7 4 3 3 4 3 5 7 8 8 10 10 12 14 15 15 18 19 18 19 19 19 22 24 28 29 29 32 36 39 39 40 44 46
11 11 12 13 12 10 8 8 9 10 11 11 9 6 6 10 12 11 11 13 17 19 20 22 24 25 24 25 30 28 28 30 32 34 35 36 40 42 42 42 44 47 49
10 12 13 14 14 14 13 13 14 15 17 19 21 22 23 21 20 19 21 21 22 23 24 25 26 30 34 33 34 35 37 38 40 41 40 40 42 43 43 46 47 48 51
Wind_Direction_850mb
241 221 208 204 216 208 208 201 201 199 198 198 199 200 200 198 199 203 204 201 196 195 191 187 182 188 198 202 202 213 203 199 199 212 217 246 264 258 258 257 257 261 269
231 202 202 195 205 212 217 203 202 198 200 202 205 204 201 200 203 201 202 203 203 201 189 195 199 203 202 198 192 206 214 213 216 226 236 246 261 248 251 258 265 269 276
232 200 170 192 192 191 203 200 202 201 202 205 206 206 206 200 203 204 202 205 209 204 204 209 211 212 210 206 195 208 219 220 218 234 245 240 251 270 265 258 265 275 284
203 196 187 176 195 199 200 198 202 206 205 202 204 207 203 202 207 207 207 209 213 218 218 220 223 221 216 213 212 219 228 235 239 244 252 261 267 271 251 257 268 262 278
182 175 158 172 194 191 203 212 216 213 212 212 206 210 209 211 211 214 214 217 218 219 225 229 232 232 229 219 219 230 236 241 249 255 264 263 263 269 261 266 269 275 275
163 142 156 165 173 197 210 217 230 257 206 217 215 211 210 210 215 219 227 225 222 225 229 231 231 225 224 233 226 234 241 249 254 259 269 276 275 272 264 268 270 275 267
136 132 125 148 156 164 173 184 252 231 171 201 217 205 205 211 213 216 221 228 226 229 230 216 211 214 225 233 239 247 251 250 252 252 268 269 276 270 276 288 282 278 284
114 106 115 118 128 148 161 160 272 273 227 192 212 204 210 205 212 204 193 212 217 228 224 205 206 203 234 241 245 260 256 261 261 270 269 272 273 289 285 283 282 279 280
109 109 108 110 114 119 145 150 184 221 218 260 198 230 230 240 236 204 215 232 233 210 210 204 189 212 239 237 264 266 271 267 264 266 256 283 289 295 291 284 280 265 266
106 106 111 107 104 114 112 115 131 157 155 173 190 161 163 179 186 170 176 178 194 187 196 188 222 242 233 237 261 265 260 234 224 251 278 289 297 289 285 271 273 267 268
113 115 105 104 102 101 104 99 99 111 124 130 125 139 125 147 146 170 180 184 197 203 218 219 218 226 232 243 245 220 207 222 264 270 266 263 262 255 263 267 272 274 271
117 111 107 109 105 105 101 97 98 97 112 130 117 106 107 111 98 81 79 88 95 86 95 104 256 203 179 181 194 231 204 231 259 238 247 243 258 262 267 271 286 300 296
104 109 124 119 119 116 111 107 101 97 91 99 110 104 93 83 85 89 87 113 95 102 191 214 339 324 285 203 225 229 214 208 236 238 229 206 228 256 280 316 329 336 332
115 155 150 136 133 130 134 141 140 134 118 114 78 72 67 62 49 324 306 300 285 274 282 292 262 256 249 240 214 213 237 234 197 181 173 209 248 323 341 351 337 333 330
124 129 121 114 106 119 126 132 138 153 171 191 210 224 289 327 329 272 274 226 187 172 171 184 184 194 203 226 221 218 191 173 163 200 174 162 141 137 302 339 341 343 331
107 100 95 95 92 93 102 111 114 102 89 105 144 162 159 141 138 139 139 139 144 135 137 146 151 166 161 138 140 140 151 161 158 148 139 143 155 121 351 353 353 343 338
91 90 85 87 95 97 97 93 93 98 103 109 103 105 105 111 125 128 132 135 133 135 133 135 132 138 149 139 144 147 144 139 135 129 121 102 48 20 10 357 343 336 333
92 98 101 105 103 98 91 96 103 109 106 105 104 106 109 113 116 121 126 125 133 127 130 133 136 148 151 139 140 139 125 122 116 99 68 31 8 355 347 343 333 329 328
94 105 110 107 103 99 94 91 93 93 95 104 106 111 112 110 115 115 106 105 110 118 123 131 140 139 142 139 137 133 126 116 100 83 20 353 346 341 334 334 329 325 323
94 91 94 94 94 95 95 93 96 102 104 98 94 99 103 101 96 93 94 96 100 112 118 130 142 144 145 144 148 154 163 161 165 343 331 333 336 333 329 327 322 319 317
94 91 88 87 94 96 94 92 93 84 77 77 81 86 89 92 90 89 96 101 117 133 145 153 162 163 163 172 181 194 224 252 278 303 311 314 313 314 318 316 314 313 311
91 91 93 88 85 89 94 95 88 87 88 87 88 87 87 87 86 81 82 123 165 181 177 168 178 197 213 226 239 247 258 271 278 284 292 300 305 309 309 308 307 305 304
83 84 82 86 88 92 114 124 111 103 92 91 82 74 64 47 346 270 243 225 227 227 215 210 221 231 237 240 245 256 267 275 284 287 291 296 301 303 304 305 306 304 302
46 38 39 39 46 83 188 206 204 176 147 101 56 24 331 322 306 285 269 259 244 242 242 245 254 255 256 262 267 264 270 273 275 280 285 292 299 302 303 303 302 301 300
24 10 354 342 342 339 322 302 269 257 251 247 250 271 291 295 292 290 281 272 266 264 259 256 261 267 264 261 259 264 265 269 276 284 293 298 297 297 300 299 299 298 297
347 342 344 336 325 314 310 302 297 289 277 270 262 255 254 252 262 271 272 280 274 277 279 278 279 278 275 265 268 275 275 278 282 286 289 291 292 293 294 294 294 294 295